[[{"header":{"parameterUnit":"m.s-1","parameterCategory":1,"la1":30.2991,"la2":30.254,"lo1":-89.0895,"lo2":-89.0444,"dy":0.0017,"dx":0.0017,"nx":28,"ny":28,"refTime":"2025-07-12T09:00:00:Z","depth":0,"parameterNumber":2,"parameterNumberName":"U-component_of_WINDS"},"data":[0,0,0,0,0,0,0,0,0,0,0,0,0,0,0,0,0,0,0,0,0,0,0,0,0,0,0,0,0,0,0,0,0,0,0,0,0,0,0,0,0,0,0,0,0,0,0,0,0,0,0,0,0,0,0,0,0,0,1.5775,1.5776,0,1.5795,1.5795,1.5795,1.5791,1.5791,1.5791,1.579,1.5811,1.5812,1.5813,0,0,0,0,0,0,0,0,0,0,0,0,0,1.5733,1.5734,1.5775,1.5776,1.5776,1.5795,1.5795,1.5796,1.5791,1.5791,1.5791,1.579,1.5811,1.5812,1.5813,0,0,0,0,0,0,0,0,0,0,0,0,0,1.5752,1.5734,1.5775,1.5776,1.5776,1.5795,1.5795,1.5796,1.5792,1.5791,1.579,1.579,1.581,1.5812,1.5813,1.5832,0,0,1.5817,1.5817,0,0,0,0,0,0,0,0,1.5751,1.5753,1.5776,1.5776,1.5776,1.579,1.5788,1.5808,1.5792,1.5786,1.579,1.579,1.5804,1.5806,1.5811,1.5833,1.5834,1.5817,1.5818,1.5818,1.5819,0,0,0,0,0,0,0,1.5749,1.5752,1.5783,1.5776,1.5776,1.5775,1.5777,1.5792,1.5798,1.5786,1.5786,1.5788,1.5805,1.581,1.5812,1.5834,1.5817,1.5818,1.5819,1.5819,1.587,1.5871,0,0,0,0,0,0,1.5748,1.5751,1.5782,1.5784,1.5762,1.5776,1.5779,1.5786,1.5798,1.5799,1.5789,1.5788,1.5808,1.581,1.5812,1.5834,1.5818,1.582,1.582,1.587,1.587,1.5871,0,0,0,0,0,0,1.5747,1.5751,1.5782,1.5767,1.5771,1.5778,1.5786,1.5787,1.5792,1.58,1.5801,1.5793,1.5808,1.581,1.5827,1.5835,1.582,1.5821,1.5869,1.587,1.587,1.5878,0,0,0,0,0,0,1.5746,1.575,1.5758,1.5768,1.5772,1.5796,1.5787,1.5788,1.5795,1.5794,1.5804,1.5805,1.5807,1.5825,1.5828,1.5836,1.5822,1.5868,1.5869,1.587,1.5877,1.5879,1.5881,0,0,0,0,0,1.5744,1.576,1.5759,1.5762,1.5782,1.5797,1.5799,1.5801,1.5795,1.5803,1.5807,1.5805,1.5833,1.5826,1.583,1.5839,1.5868,1.5869,1.587,1.5876,1.5879,1.5881,0,0,0,0,0,0,1.5752,1.5761,1.576,1.5779,1.5787,1.5796,1.5805,1.5804,1.5813,1.5812,1.5814,1.5817,1.5833,1.5837,1.583,1.5857,1.585,1.5852,1.5853,1.5855,1.5857,1.5855,1.5824,0,0,0,0,0,1.5756,1.5767,1.5775,1.5791,1.5795,1.5799,1.5806,1.5807,1.5815,1.5818,1.5824,1.5832,1.5842,1.5849,1.5859,1.5878,1.5879,1.5885,1.5887,1.5889,1.589,1.5899,1.5901,1.5875,1.5875,1.5875,0,0,1.5764,1.5771,1.5778,1.5793,1.5799,1.581,1.5802,1.5815,1.5823,1.582,1.5835,1.5839,1.5848,1.5865,1.5873,1.5869,1.5898,1.589,1.5891,1.5892,1.59,1.5902,1.5905,1.5876,1.5875,1.5875,0,0,1.5785,1.5792,1.5805,1.5811,1.582,1.5822,1.5825,1.5834,1.5836,1.5851,1.5849,1.5858,1.5877,1.5882,1.5888,1.5908,1.5906,1.5911,1.5921,1.5929,1.5931,1.5933,1.5939,1.5941,1.5913,1.5913,1.5913,0,1.5794,1.5811,1.5812,1.5824,1.583,1.5827,1.584,1.5846,1.5858,1.5861,1.5858,1.5879,1.5885,1.5902,1.5907,1.5912,1.5915,1.591,1.593,1.5932,1.5934,1.594,1.5942,1.5914,1.5914,1.5914,1.5913,0,1.5821,1.5832,1.5842,1.5852,1.5859,1.5872,1.5874,1.5881,1.5881,1.5883,1.5898,1.5904,1.5915,1.5919,1.592,1.5936,1.5933,1.593,1.5923,1.5937,1.5942,1.5945,1.5914,1.5914,1.5914,1.5914,0,0,1.5848,1.5858,1.5861,1.5865,1.5874,1.5882,1.5894,1.5903,1.5909,1.5917,1.5925,1.594,1.5936,1.5942,1.5943,1.595,1.5964,1.5946,1.5946,1.5948,1.5981,1.5983,1.5985,1.5962,1.5963,1.5963,1.5979,0,1.5869,1.5889,1.5889,1.5908,1.5917,1.5914,1.5923,1.5929,1.5932,1.594,1.5943,1.5952,1.5947,1.5951,1.5958,1.5961,1.597,1.596,1.597,1.597,1.5967,1.5988,1.5991,1.6006,1.5982,1.5982,1.5982,0,1.5895,1.5903,1.5922,1.5927,1.5931,1.594,1.5948,1.5956,1.5962,1.5963,1.5969,1.5968,1.5979,1.5971,1.5985,1.5978,1.5982,1.5984,1.5985,1.5985,1.5977,1.5989,1.6011,1.6013,1.5986,1.5986,1.5985,0,1.5911,1.5926,1.5939,1.5943,1.595,1.5956,1.5959,1.5964,1.5969,1.5976,1.5979,1.5988,1.5992,1.5998,1.5999,1.5994,1.6013,1.6006,1.6013,1.6013,1.6017,1.6017,1.604,1.6021,1.6021,1.6021,1.6021,0,1.5934,1.5945,1.5946,1.5954,1.5966,1.5966,1.5978,1.5981,1.5985,1.5993,1.5991,1.5998,1.5999,1.6006,1.6007,1.6018,1.602,1.6021,1.6021,1.6021,1.602,1.6023,1.6022,1.6022,1.6022,1.6022,1.6022,0,1.5954,1.5955,1.5968,1.5973,1.5975,1.5983,1.5987,1.5994,1.5996,1.6005,1.6007,1.601,1.6018,1.6019,1.603,1.603,1.6043,1.6042,1.604,1.604,1.6047,1.6046,1.6072,1.6075,1.6055,1.6055,1.6055,0,1.5968,1.5976,1.5981,1.5986,1.5989,1.5997,1.6002,1.6002,1.6007,1.6013,1.6019,1.6027,1.6033,1.6046,1.6049,1.6056,1.6055,1.6063,1.6056,1.6055,1.6054,1.6053,1.6053,1.6065,1.6065,1.6065,1.6065,0,1.5992,1.5991,1.5998,1.6005,1.601,1.6016,1.6021,1.6025,1.6025,1.603,1.6038,1.6043,1.6052,1.606,1.6066,1.6069,1.6067,1.6067,1.6069,1.6069,1.6067,1.6067,1.6043,1.6067,1.6067,1.6067,1.6066,1.6066,1.6008,1.6015,1.6019,1.6026,1.6029,1.6034,1.604,1.6041,1.6048,1.6055,1.6055,1.6063,1.6067,1.6076,1.6079,1.6085,1.6083,1.6086,1.6086,1.6087,1.6087,1.6067,1.6087,1.6087,1.6087,1.6087,1.6087,0,1.6031,1.6033,1.6039,1.6046,1.6051,1.6048,1.6053,1.6057,1.6064,1.6069,1.6074,1.6082,1.6089,1.6092,1.6098,1.6102,1.6101,1.6104,1.6103,1.6104,1.609,1.6087,1.6104,1.6104,1.6104,1.6104,1.6104,1.6104,1.6043,1.6054,1.6053,1.6065,1.6067,1.6075,1.6077,1.6081,1.6084,1.6093,1.6098,1.61,1.6103,1.6109,1.6114,1.6115,1.6117,1.612,1.612,1.6107,1.6105,1.6103,1.61,1.6121,1.6121,1.6133,1.6133,1.6133]},{"header":{"parameterUnit":"m.s-1","parameterCategory":1,"la1":30.2991,"la2":30.254,"lo1":-89.0895,"lo2":-89.0444,"dy":0.0017,"dx":0.0017,"nx":28,"ny":28,"refTime":"2025-07-12T09:00:00:Z","depth":0,"parameterNumber":3,"parameterNumberName":"V-component_of_WINDS"},"data":[0,0,0,0,0,0,0,0,0,0,0,0,0,0,0,0,0,0,0,0,0,0,0,0,0,0,0,0,0,0,0,0,0,0,0,0,0,0,0,0,0,0,0,0,0,0,0,0,0,0,0,0,0,0,0,0,0,0,4.6279,4.6278,0,4.6212,4.6211,4.6211,4.6147,4.6146,4.6146,4.6145,4.6071,4.6069,4.6068,0,0,0,0,0,0,0,0,0,0,0,0,0,4.6348,4.6347,4.6279,4.6278,4.6278,4.6212,4.6211,4.621,4.6147,4.6146,4.6145,4.6144,4.6071,4.607,4.6068,0,0,0,0,0,0,0,0,0,0,0,0,0,4.6303,4.6347,4.6279,4.6238,4.6234,4.6212,4.6211,4.621,4.6147,4.6146,4.6145,4.6144,4.6071,4.607,4.6068,4.608,0,0,4.6062,4.6061,0,0,0,0,0,0,0,0,4.6306,4.6301,4.6245,4.6241,4.6236,4.6187,4.6208,4.6166,4.6148,4.618,4.6145,4.6143,4.611,4.6105,4.6095,4.6076,4.6073,4.6062,4.6061,4.606,4.6059,0,0,0,0,0,0,0,4.6309,4.6303,4.6252,4.6244,4.6239,4.6222,4.6214,4.62,4.6152,4.6177,4.6172,4.6166,4.6107,4.6097,4.6092,4.6072,4.6062,4.606,4.6059,4.6058,4.606,4.6061,0,0,0,0,0,0,4.6319,4.6306,4.6255,4.625,4.6269,4.6222,4.6213,4.6204,4.6152,4.6143,4.6167,4.6163,4.61,4.6095,4.609,4.61,4.606,4.6058,4.6057,4.6059,4.606,4.6061,0,0,0,0,0,0,4.6321,4.6315,4.6257,4.6277,4.6269,4.6222,4.6212,4.6203,4.6192,4.6144,4.6135,4.6165,4.6099,4.6092,4.6083,4.6096,4.6057,4.6056,4.6057,4.6059,4.6061,4.6121,0,0,0,0,0,0,4.6323,4.6316,4.6321,4.6278,4.6268,4.6254,4.6213,4.6203,4.619,4.6184,4.614,4.6132,4.6098,4.6086,4.6081,4.6093,4.6054,4.6056,4.6058,4.606,4.6117,4.6124,4.613,0,0,0,0,0,4.6326,4.634,4.6322,4.6316,4.6273,4.6254,4.6248,4.6211,4.6192,4.6195,4.6165,4.6133,4.6096,4.6086,4.608,4.6091,4.6055,4.6057,4.606,4.6114,4.6123,4.613,0,0,0,0,0,0,4.6384,4.6333,4.6313,4.6313,4.6289,4.6244,4.6248,4.6221,4.62,4.6195,4.6148,4.6138,4.6134,4.6112,4.6101,4.61,4.6071,4.6073,4.6114,4.6122,4.6129,4.6133,4.6053,0,0,0,0,0,4.6397,4.6388,4.6343,4.6348,4.6337,4.6295,4.6285,4.6258,4.623,4.6219,4.6187,4.616,4.6142,4.6131,4.6112,4.6114,4.6103,4.6119,4.6126,4.6131,4.6132,4.6131,4.6138,4.607,4.607,4.607,0,0,4.6423,4.6395,4.6391,4.6359,4.6337,4.6326,4.6286,4.6277,4.6268,4.6217,4.6207,4.6183,4.6149,4.6146,4.6143,4.6127,4.6149,4.6134,4.6139,4.6137,4.6135,4.6141,4.6147,4.6072,4.6071,4.6071,0,0,4.6466,4.6444,4.6445,4.6425,4.6392,4.6365,4.6365,4.6324,4.6307,4.6297,4.6258,4.6246,4.6217,4.6194,4.6179,4.6215,4.6185,4.621,4.6243,4.6243,4.6248,4.6252,4.6264,4.6269,4.6212,4.6212,4.6212,0,4.6502,4.6487,4.6449,4.6442,4.6429,4.6384,4.6385,4.6366,4.6328,4.6319,4.6303,4.6265,4.6239,4.623,4.6239,4.6229,4.6226,4.6214,4.6251,4.6255,4.6258,4.6269,4.6274,4.6215,4.6215,4.6214,4.6214,0,4.6532,4.6522,4.6527,4.6494,4.6482,4.6479,4.6439,4.643,4.6405,4.6379,4.6368,4.6336,4.631,4.6306,4.628,4.6293,4.6284,4.626,4.623,4.6269,4.6278,4.6282,4.622,4.6218,4.6217,4.6217,0,0,4.6608,4.6556,4.6558,4.6543,4.6505,4.6495,4.649,4.6466,4.6459,4.6435,4.6429,4.6406,4.6384,4.6366,4.6338,4.6338,4.6367,4.6313,4.6312,4.6324,4.6378,4.6396,4.6401,4.6348,4.6349,4.6349,4.6381,0,4.6643,4.6633,4.6599,4.6598,4.6588,4.6546,4.6541,4.6517,4.6492,4.6479,4.6451,4.6435,4.6407,4.6397,4.6395,4.6364,4.6377,4.6362,4.6339,4.6339,4.6348,4.6406,4.6424,4.6456,4.6384,4.6385,4.6385,0,4.6682,4.6663,4.6662,4.6625,4.6619,4.6616,4.6592,4.658,4.6551,4.6533,4.6515,4.6484,4.6475,4.6449,4.6434,4.6424,4.6413,4.6397,4.6397,4.6392,4.6364,4.6402,4.6465,4.6469,4.6391,4.639,4.639,0,4.6736,4.671,4.6706,4.6694,4.6651,4.665,4.6631,4.6602,4.659,4.6568,4.656,4.6537,4.6524,4.6506,4.6469,4.6453,4.6459,4.6429,4.6442,4.6443,4.6443,4.6443,4.6504,4.6439,4.6439,4.6439,4.6439,0,4.6778,4.6779,4.673,4.6727,4.6726,4.6687,4.6687,4.6664,4.6639,4.663,4.6592,4.6584,4.6537,4.6523,4.6494,4.6486,4.6481,4.6465,4.6457,4.6467,4.6469,4.6458,4.6455,4.644,4.644,4.644,4.6439,0,4.6837,4.6805,4.6797,4.6758,4.6748,4.6749,4.6715,4.671,4.6684,4.6673,4.6669,4.6627,4.6609,4.6572,4.6543,4.6523,4.6522,4.6508,4.6532,4.6527,4.6541,4.654,4.6596,4.6601,4.6534,4.6535,4.6535,0,4.6866,4.6865,4.6827,4.6819,4.6803,4.6791,4.6779,4.6741,4.673,4.6698,4.6697,4.6676,4.6658,4.6631,4.6597,4.6574,4.6559,4.6581,4.6555,4.6566,4.6558,4.6558,4.6557,4.6586,4.6587,4.6587,4.6588,0,4.6919,4.6903,4.6888,4.6869,4.6856,4.6838,4.6818,4.6813,4.677,4.6759,4.6742,4.6728,4.6699,4.6679,4.6652,4.6631,4.6602,4.6597,4.6598,4.6608,4.6621,4.6613,4.6546,4.6595,4.6594,4.6594,4.6593,4.6593,4.6962,4.696,4.6933,4.6918,4.6899,4.6882,4.6875,4.685,4.6835,4.681,4.6788,4.6773,4.6744,4.6705,4.6686,4.6672,4.6657,4.666,4.666,4.6661,4.6665,4.6626,4.6667,4.6667,4.6666,4.6666,4.6666,0,4.7012,4.6994,4.698,4.6954,4.6942,4.6919,4.6896,4.6886,4.6874,4.685,4.6834,4.6813,4.6794,4.6759,4.6737,4.6732,4.6718,4.6727,4.6726,4.6721,4.668,4.668,4.6739,4.6739,4.6739,4.6739,4.6739,4.6739,4.7037,4.7032,4.7014,4.6999,4.6979,4.6965,4.6954,4.6937,4.6918,4.6897,4.6882,4.6861,4.6832,4.6807,4.6788,4.6778,4.6771,4.6784,4.677,4.6731,4.6724,4.6718,4.6718,4.6783,4.6783,4.6812,4.6812,4.6813]}]]